QPF
0.00 0.00 0.00 0.00 0.00 0.00 0.00 0.00 0.00 0.00 0.00 0.00 0.00 0.00 0.00 0.00 0.00 0.00 0.00 0.00 0.00 0.00 0.00 0.00 0.00 0.00 0.00 0.00 0.00 0.00 0.00 0.00 0.00 0.00 0.00 0.00 0.00 0.00 0.00 0.00 0.00 0.00 0.00 0.00 0.00
0.00 0.00 0.00 0.00 0.00 0.00 0.00 0.00 0.00 0.00 0.00 0.00 0.00 0.00 0.00 0.00 0.00 0.00 0.00 0.00 0.00 0.00 0.00 0.00 0.00 0.00 0.00 0.00 0.00 0.00 0.00 0.00 0.00 0.00 0.00 0.00 0.00 0.00 0.00 0.00 0.00 0.00 0.00 0.00 0.00
0.00 0.00 0.00 0.00 0.00 0.00 0.00 0.00 0.00 0.00 0.00 0.00 0.00 0.00 0.00 0.00 0.00 0.00 0.00 0.00 0.00 0.00 0.00 0.00 0.00 0.00 0.00 0.00 0.00 0.00 0.00 0.00 0.00 0.00 0.00 0.00 0.00 0.00 0.00 0.00 0.00 0.00 0.00 0.00 0.00
0.00 0.00 0.00 0.00 0.00 0.00 0.00 0.00 0.00 0.00 0.00 0.00 0.00 0.00 0.00 0.00 0.00 0.00 0.00 0.00 0.00 0.00 0.00 0.00 0.00 0.00 0.00 0.00 0.00 0.00 0.00 0.00 0.00 0.00 0.00 0.00 0.00 0.00 0.00 0.00 0.00 0.00 0.00 0.00 0.00
0.00 0.00 0.00 0.00 0.00 0.00 0.00 0.00 0.00 0.00 0.00 0.00 0.00 0.00 0.00 0.00 0.00 0.00 0.00 0.00 0.00 0.00 0.00 0.00 0.00 0.00 0.00 0.00 0.00 0.00 0.00 0.00 0.00 0.00 0.00 0.00 0.00 0.00 0.00 0.00 0.00 0.00 0.00 0.00 0.00
0.00 0.00 0.00 0.00 0.00 0.00 0.00 0.00 0.00 0.00 0.00 0.00 0.00 0.00 0.00 0.00 0.00 0.00 0.00 0.00 0.00 0.00 0.00 0.00 0.00 0.00 0.00 0.00 0.00 0.00 0.00 0.00 0.00 0.00 0.00 0.00 0.00 0.00 0.00 0.00 0.00 0.00 0.00 0.00 0.00
0.00 0.00 0.00 0.00 0.00 0.00 0.00 0.00 0.00 0.00 0.00 0.00 0.00 0.00 0.00 0.00 0.00 0.00 0.00 0.00 0.00 0.00 0.00 0.00 0.00 0.00 0.00 0.00 0.00 0.00 0.00 0.00 0.00 0.00 0.00 0.00 0.00 0.00 0.00 0.00 0.00 0.00 0.00 0.00 0.00
0.00 0.00 0.00 0.00 0.00 0.00 0.00 0.00 0.00 0.00 0.00 0.00 0.00 0.00 0.00 0.00 0.00 0.00 0.00 0.00 0.00 0.00 0.00 0.00 0.00 0.00 0.00 0.00 0.00 0.00 0.00 0.00 0.00 0.00 0.00 0.00 0.00 0.00 0.00 0.00 0.00 0.00 0.00 0.00 0.00
0.00 0.00 0.00 0.00 0.00 0.00 0.00 0.00 0.00 0.00 0.00 0.00 0.01 0.00 0.00 0.00 0.00 0.00 0.00 0.00 0.00 0.00 0.00 0.00 0.00 0.00 0.00 0.00 0.00 0.00 0.00 0.00 0.00 0.00 0.00 0.00 0.00 0.00 0.00 0.00 0.00 0.00 0.00 0.00 0.00
0.00 0.00 0.00 0.00 0.00 0.00 0.00 0.00 0.00 0.00 0.01 0.00 0.00 0.00 0.00 0.00 0.00 0.00 0.00 0.00 0.00 0.00 0.00 0.00 0.00 0.00 0.00 0.00 0.00 0.00 0.00 0.00 0.00 0.00 0.00 0.00 0.00 0.00 0.00 0.00 0.00 0.00 0.00 0.00 0.00
0.00 0.00 0.00 0.00 0.00 0.00 0.00 0.00 0.00 0.00 0.00 0.00 0.00 0.00 0.00 0.00 0.00 0.00 0.00 0.00 0.00 0.01 0.00 0.00 0.00 0.00 0.00 0.00 0.00 0.00 0.00 0.00 0.00 0.00 0.00 0.00 0.00 0.00 0.00 0.00 0.00 0.00 0.00 0.00 0.00
0.00 0.00 0.00 0.00 0.00 0.00 0.00 0.00 0.00 0.00 0.00 0.00 0.00 0.00 0.00 0.00 0.00 0.00 0.00 0.00 0.00 0.00 0.00 0.01 0.00 0.00 0.00 0.00 0.00 0.00 0.00 0.00 0.00 0.00 0.00 0.00 0.00 0.00 0.00 0.00 0.00 0.00 0.00 0.00 0.00
0.00 0.00 0.00 0.00 0.00 0.00 0.00 0.00 0.00 0.00 0.00 0.00 0.00 0.00 0.00 0.00 0.00 0.00 0.00 0.01 0.00 0.00 0.00 0.00 0.00 0.00 0.00 0.00 0.00 0.00 0.00 0.00 0.00 0.00 0.00 0.00 0.00 0.00 0.00 0.00 0.00 0.00 0.00 0.00 0.00
0.00 0.00 0.00 0.00 0.00 0.00 0.00 0.00 0.00 0.00 0.00 0.00 0.00 0.00 0.00 0.00 0.00 0.00 0.00 0.02 0.02 0.01 0.01 0.01 0.00 0.00 0.00 0.00 0.00 0.00 0.00 0.00 0.00 0.00 0.00 0.00 0.00 0.00 0.00 0.00 0.00 0.00 0.00 0.00 0.00
0.00 0.00 0.00 0.00 0.00 0.00 0.00 0.00 0.00 0.00 0.00 0.00 0.00 0.00 0.00 0.01 0.02 0.00 0.01 0.01 0.01 0.05 0.05 0.01 0.00 0.00 0.00 0.00 0.00 0.00 0.00 0.00 0.00 0.00 0.00 0.00 0.00 0.00 0.00 0.00 0.00 0.00 0.00 0.00 0.00
0.00 0.00 0.00 0.00 0.00 0.00 0.00 0.00 0.02 0.00 0.00 0.00 0.00 0.00 0.00 0.00 0.00 0.00 0.02 0.06 0.01 0.03 0.11 0.07 0.01 0.01 0.00 0.01 0.01 0.00 0.00 0.01 0.01 0.02 0.03 0.00 0.00 0.00 0.00 0.00 0.00 0.00 0.00 0.00 0.00
0.00 0.00 0.00 0.00 0.00 0.00 0.00 0.00 0.04 0.02 0.00 0.00 0.00 0.00 0.00 0.00 0.00 0.00 0.01 0.04 0.09 0.03 0.03 0.08 0.12 0.04 0.03 0.04 0.07 0.05 0.02 0.06 0.06 0.07 0.01 0.00 0.00 0.00 0.00 0.00 0.00 0.00 0.00 0.00 0.00
0.00 0.00 0.00 0.00 0.00 0.00 0.00 0.00 0.02 0.02 0.00 0.00 0.00 0.00 0.00 0.00 0.00 0.00 0.01 0.03 0.03 0.05 0.05 0.03 0.07 0.26 0.11 0.03 0.04 0.06 0.02 0.01 0.01 0.00 0.00 0.00 0.01 0.00 0.00 0.00 0.00 0.00 0.00 0.00 0.00
0.00 0.00 0.00 0.00 0.00 0.00 0.00 0.00 0.02 0.01 0.00 0.00 0.00 0.00 0.00 0.00 0.00 0.00 0.00 0.02 0.03 0.03 0.08 0.06 0.06 0.08 0.13 0.06 0.04 0.08 0.10 0.00 0.00 0.00 0.01 0.04 0.01 0.00 0.00 0.00 0.00 0.00 0.00 0.00 0.00
0.00 0.00 0.00 0.00 0.00 0.00 0.00 0.01 0.01 0.00 0.00 0.00 0.00 0.00 0.00 0.00 0.00 0.01 0.02 0.01 0.00 0.00 0.03 0.06 0.06 0.04 0.05 0.13 0.10 0.05 0.09 0.07 0.06 0.01 0.02 0.04 0.02 0.00 0.00 0.00 0.00 0.00 0.00 0.00 0.00
0.00 0.00 0.00 0.00 0.00 0.00 0.00 0.00 0.00 0.00 0.00 0.00 0.00 0.00 0.00 0.00 0.00 0.02 0.02 0.02 0.00 0.00 0.00 0.01 0.06 0.05 0.03 0.10 0.20 0.13 0.11 0.10 0.07 0.05 0.00 0.02 0.04 0.01 0.00 0.00 0.00 0.00 0.00 0.00 0.00
0.00 0.00 0.00 0.00 0.00 0.00 0.00 0.00 0.00 0.00 0.00 0.00 0.00 0.00 0.00 0.00 0.00 0.00 0.00 0.00 0.00 0.00 0.00 0.00 0.02 0.07 0.10 0.07 0.04 0.11 0.12 0.07 0.08 0.10 0.04 0.00 0.02 0.02 0.02 0.00 0.00 0.00 0.00 0.00 0.00
0.00 0.00 0.00 0.00 0.00 0.00 0.00 0.00 0.00 0.00 0.00 0.00 0.00 0.00 0.00 0.00 0.00 0.00 0.00 0.00 0.00 0.00 0.00 0.00 0.01 0.04 0.08 0.06 0.01 0.03 0.06 0.06 0.02 0.04 0.10 0.06 0.03 0.03 0.02 0.01 0.00 0.00 0.00 0.00 0.00
0.00 0.00 0.00 0.00 0.00 0.00 0.00 0.00 0.00 0.00 0.00 0.00 0.00 0.00 0.00 0.00 0.00 0.00 0.00 0.00 0.00 0.00 0.00 0.00 0.01 0.03 0.03 0.06 0.04 0.04 0.03 0.02 0.02 0.03 0.06 0.09 0.06 0.01 0.01 0.00 0.00 0.00 0.00 0.00 0.00
0.00 0.00 0.00 0.00 0.00 0.00 0.00 0.00 0.00 0.00 0.00 0.00 0.00 0.00 0.01 0.00 0.00 0.00 0.00 0.00 0.00 0.00 0.00 0.00 0.02 0.01 0.02 0.01 0.01 0.03 0.02 0.02 0.03 0.06 0.03 0.05 0.05 0.04 0.02 0.00 0.00 0.00 0.00 0.00 0.00
0.00 0.00 0.00 0.00 0.00 0.00 0.00 0.00 0.00 0.00 0.00 0.00 0.00 0.00 0.00 0.01 0.02 0.00 0.00 0.00 0.00 0.00 0.00 0.00 0.01 0.00 0.00 0.00 0.00 0.00 0.01 0.01 0.03 0.04 0.03 0.01 0.04 0.02 0.01 0.00 0.00 0.00 0.00 0.00 0.00
0.00 0.00 0.00 0.00 0.00 0.00 0.00 0.00 0.00 0.00 0.00 0.00 0.00 0.00 0.00 0.01 0.00 0.00 0.00 0.00 0.00 0.00 0.00 0.00 0.00 0.00 0.00 0.00 0.00 0.00 0.00 0.01 0.03 0.03 0.01 0.01 0.00 0.00 0.01 0.02 0.01 0.00 0.00 0.00 0.00
MSLP
1020.19 1019.80 1019.40 1019.04 1018.71 1018.30 1017.95 1017.62 1017.27 1016.95 1016.63 1016.41 1016.14 1015.89 1015.70 1015.43 1015.06 1014.63 1013.58 1011.37 1011.48 1011.77 1011.82 1012.24 1012.55 1012.71 1012.78 1012.63 1012.61 1012.40 1011.14 1009.49 1008.89 1008.87 1008.32 1009.25 1009.22 1009.64 1009.67 1009.55 1009.75 1009.87 1009.68 1010.14 1010.38
1020.04 1019.60 1019.28 1018.93 1018.54 1018.10 1017.74 1017.37 1016.99 1016.62 1016.30 1016.03 1015.78 1015.53 1015.44 1015.24 1014.60 1012.94 1010.71 1010.84 1011.07 1011.22 1011.34 1011.26 1011.69 1012.29 1012.27 1012.20 1012.29 1011.59 1010.57 1009.22 1009.08 1008.98 1009.08 1009.37 1009.40 1009.46 1009.64 1009.58 1009.71 1009.92 1010.30 1010.73 1010.92
1020.03 1019.60 1019.17 1018.76 1018.33 1017.88 1017.44 1017.03 1016.66 1016.29 1015.92 1015.64 1015.46 1015.34 1015.29 1015.08 1013.77 1009.81 1009.40 1009.91 1010.50 1010.66 1010.75 1010.93 1011.44 1011.73 1011.92 1012.08 1011.73 1011.12 1009.73 1009.27 1009.63 1009.76 1009.95 1009.75 1009.84 1009.70 1009.32 1009.15 1008.74 1009.30 1009.98 1010.56 1010.88
1019.96 1019.58 1019.04 1018.56 1018.10 1017.65 1017.16 1016.72 1016.31 1015.95 1015.60 1015.30 1015.14 1015.18 1015.20 1014.97 1012.19 1009.09 1008.97 1009.37 1010.19 1010.52 1010.87 1010.93 1011.24 1011.26 1011.10 1011.16 1010.89 1010.89 1010.05 1010.03 1009.94 1010.24 1010.29 1010.05 1009.92 1009.49 1009.35 1008.61 1008.88 1009.50 1009.76 1010.34 1010.67
1019.82 1019.34 1018.89 1018.39 1017.88 1017.36 1016.87 1016.38 1015.88 1015.42 1015.09 1014.91 1014.81 1015.03 1015.11 1014.07 1010.25 1009.41 1009.06 1009.30 1009.93 1010.69 1010.45 1010.29 1010.30 1010.18 1010.14 1010.35 1011.00 1010.67 1009.86 1010.19 1010.25 1010.71 1010.58 1010.63 1009.94 1009.63 1009.07 1009.01 1009.50 1009.96 1010.28 1010.30 1010.43
1019.67 1019.19 1018.69 1018.13 1017.56 1016.99 1016.42 1015.85 1015.30 1014.80 1014.49 1014.30 1014.42 1014.70 1014.67 1012.68 1009.54 1009.71 1009.63 1009.21 1008.93 1009.50 1009.93 1010.07 1009.73 1010.03 1009.97 1010.10 1010.12 1009.90 1010.10 1010.27 1010.61 1010.68 1010.79 1010.64 1010.11 1010.34 1008.23 1008.78 1009.14 1009.77 1009.93 1010.17 1010.36
1019.50 1019.01 1018.44 1017.83 1017.17 1016.51 1015.89 1015.23 1014.63 1014.11 1013.79 1013.62 1013.79 1014.20 1013.73 1010.02 1009.46 1009.67 1010.01 1009.50 1009.34 1008.92 1008.81 1009.24 1009.71 1009.98 1009.85 1010.16 1010.32 1010.30 1010.33 1010.39 1010.21 1010.57 1010.52 1010.82 1009.85 1008.78 1008.06 1008.57 1008.82 1009.01 1009.42 1009.86 1010.07
1019.44 1018.86 1018.21 1017.51 1016.77 1015.98 1015.21 1014.48 1013.78 1013.23 1012.83 1012.74 1013.22 1013.59 1011.83 1010.05 1009.97 1009.78 1009.76 1009.56 1009.45 1009.18 1009.43 1009.79 1010.00 1009.75 1009.83 1010.32 1010.62 1010.43 1010.26 1009.23 1008.48 1009.96 1010.16 1010.45 1007.56 1008.01 1008.19 1008.23 1008.33 1008.83 1009.09 1009.40 1009.62
1019.44 1018.82 1018.08 1017.13 1016.25 1015.40 1014.60 1013.71 1012.92 1012.39 1012.22 1012.30 1012.94 1013.02 1010.96 1010.13 1009.78 1009.21 1009.33 1009.00 1009.15 1009.58 1010.00 1009.95 1010.05 1009.60 1010.31 1009.79 1009.88 1009.52 1007.93 1008.32 1008.60 1009.31 1009.55 1009.59 1007.92 1008.36 1008.71 1008.73 1008.76 1008.91 1008.99 1009.03 1009.10
1019.35 1018.60 1017.74 1016.75 1015.80 1014.94 1014.00 1013.02 1012.45 1012.09 1011.99 1012.25 1012.30 1013.08 1010.75 1009.94 1009.62 1009.22 1009.04 1009.00 1008.89 1009.62 1010.03 1010.03 1009.63 1008.98 1008.81 1008.40 1005.48 1007.17 1008.37 1007.90 1008.17 1009.13 1009.68 1009.24 1008.40 1009.00 1009.23 1009.33 1009.18 1009.05 1009.03 1009.01 1008.88
1019.23 1018.37 1017.46 1016.54 1015.68 1014.80 1013.92 1012.94 1012.76 1012.73 1012.37 1011.71 1011.81 1011.00 1010.78 1010.71 1009.78 1009.25 1009.16 1008.88 1008.52 1008.90 1008.46 1009.14 1009.00 1006.17 1005.47 1006.44 1007.07 1006.60 1006.92 1007.27 1008.59 1009.37 1009.47 1008.71 1008.69 1008.79 1009.05 1009.62 1009.41 1009.43 1009.37 1009.50 1009.23
1019.09 1018.19 1017.35 1016.36 1015.61 1015.19 1014.65 1014.47 1015.83 1016.27 1014.10 1012.57 1012.12 1011.87 1011.26 1011.00 1010.52 1009.37 1009.35 1008.86 1008.08 1007.29 1008.41 1008.45 1006.22 1005.82 1007.19 1007.30 1007.42 1007.25 1006.94 1007.19 1008.81 1009.82 1009.78 1008.91 1008.73 1009.13 1009.68 1010.03 1010.89 1011.24 1011.11 1010.90 1010.38
1018.93 1018.02 1017.30 1016.29 1015.70 1015.51 1015.73 1016.05 1016.28 1015.90 1014.89 1012.90 1012.46 1011.97 1011.59 1011.36 1010.51 1009.71 1009.66 1008.59 1007.77 1007.44 1006.71 1006.17 1003.99 1006.58 1006.62 1006.95 1007.08 1006.67 1006.66 1007.60 1008.62 1009.88 1010.06 1009.86 1008.53 1008.82 1010.01 1010.98 1011.96 1012.40 1012.39 1011.96 1011.48
1018.69 1017.85 1017.19 1016.55 1015.98 1016.01 1015.69 1016.34 1016.14 1015.96 1014.49 1013.50 1012.80 1012.74 1012.10 1011.21 1011.03 1011.16 1010.99 1009.85 1007.98 1006.83 1006.93 1006.64 1005.59 1006.11 1006.22 1006.23 1006.88 1006.34 1007.19 1008.21 1009.27 1009.63 1009.56 1010.11 1008.05 1008.71 1010.19 1011.44 1012.34 1012.82 1012.83 1012.54 1011.92
1018.56 1017.79 1017.26 1016.77 1016.70 1016.29 1016.36 1015.99 1015.80 1015.83 1014.73 1014.62 1013.85 1013.61 1012.84 1012.75 1013.05 1011.69 1012.47 1010.88 1009.28 1007.88 1007.34 1004.94 1005.54 1005.74 1006.13 1005.90 1006.89 1006.28 1007.42 1008.30 1009.30 1009.84 1010.45 1010.41 1010.46 1008.96 1010.89 1011.91 1012.91 1013.37 1013.57 1013.22 1012.66
1018.38 1017.88 1017.46 1016.91 1016.61 1016.34 1016.08 1015.83 1015.59 1015.42 1015.35 1015.52 1014.98 1014.13 1013.41 1013.18 1013.02 1012.68 1012.54 1012.64 1011.51 1009.65 1008.38 1007.21 1006.11 1006.04 1005.92 1006.94 1007.38 1007.93 1008.39 1008.76 1009.37 1010.38 1010.17 1009.46 1010.82 1010.52 1012.16 1013.64 1014.12 1014.63 1014.57 1014.26 1013.61
1018.30 1017.94 1017.68 1017.38 1017.24 1016.23 1015.89 1015.29 1015.51 1016.25 1017.33 1016.80 1015.88 1015.12 1014.70 1014.21 1013.76 1013.78 1013.72 1013.76 1013.79 1011.95 1009.65 1008.36 1007.60 1007.22 1006.53 1007.17 1007.84 1008.14 1008.54 1008.73 1009.14 1009.25 1008.05 1009.26 1011.31 1013.01 1014.64 1015.42 1015.86 1015.91 1015.79 1015.49 1014.81
1018.20 1018.10 1017.78 1017.35 1016.87 1016.12 1015.37 1015.51 1016.67 1018.30 1018.10 1017.68 1016.81 1016.15 1015.80 1015.37 1015.00 1015.02 1014.64 1014.90 1015.18 1014.20 1012.64 1010.98 1009.70 1009.74 1009.33 1007.29 1007.45 1007.84 1007.28 1006.28 1006.45 1007.28 1008.40 1010.88 1011.77 1014.45 1016.29 1017.06 1017.33 1017.40 1017.13 1016.59 1015.82
1018.56 1018.33 1017.92 1017.36 1016.44 1015.81 1015.23 1016.64 1019.12 1019.40 1019.25 1018.31 1017.44 1016.93 1016.64 1016.45 1016.20 1015.90 1016.31 1016.50 1016.29 1015.71 1014.73 1013.60 1012.09 1011.86 1011.24 1010.57 1009.98 1008.53 1007.37 1006.71 1007.15 1008.03 1008.74 1011.53 1014.90 1016.42 1017.35 1018.22 1018.57 1018.58 1018.19 1017.52 1016.85
1019.38 1018.84 1018.67 1018.32 1017.29 1015.94 1016.48 1018.65 1020.12 1020.45 1019.81 1018.95 1018.53 1018.47 1017.94 1017.53 1017.12 1016.86 1017.03 1017.34 1016.68 1016.10 1015.86 1015.12 1014.01 1013.30 1012.89 1012.49 1011.58 1010.77 1009.21 1008.57 1008.28 1008.12 1009.37 1012.30 1015.28 1016.99 1018.86 1019.77 1020.06 1019.83 1019.46 1018.76 1017.94
1019.81 1019.36 1019.91 1019.01 1017.91 1017.70 1018.91 1020.47 1020.90 1020.92 1020.51 1020.02 1019.74 1019.32 1019.28 1018.89 1018.33 1018.04 1018.03 1017.73 1017.33 1016.47 1015.82 1015.67 1015.28 1014.70 1014.56 1015.87 1014.96 1012.95 1012.28 1010.82 1008.98 1009.06 1009.29 1013.24 1018.03 1020.47 1021.43 1021.84 1021.68 1021.30 1020.73 1019.96 1018.88
1021.05 1020.82 1021.32 1020.07 1018.99 1020.29 1021.33 1021.98 1021.96 1021.64 1021.14 1020.95 1020.80 1020.37 1020.25 1019.80 1019.27 1018.81 1018.57 1018.26 1018.03 1017.17 1016.27 1016.11 1016.15 1015.98 1016.55 1017.36 1017.09 1016.66 1016.32 1014.23 1011.56 1011.72 1012.59 1013.68 1020.36 1023.21 1023.68 1023.68 1023.12 1022.25 1021.50 1020.79 1019.92
1022.20 1022.35 1022.04 1021.03 1021.43 1022.33 1022.89 1022.83 1022.64 1022.32 1022.12 1021.78 1021.58 1021.49 1021.33 1020.84 1020.22 1019.73 1019.30 1018.95 1018.51 1017.73 1017.27 1016.74 1016.90 1016.93 1017.47 1017.56 1017.82 1018.48 1018.48 1017.00 1015.36 1014.59 1016.13 1017.13 1022.45 1024.87 1025.02 1024.65 1024.08 1023.02 1022.12 1021.28 1020.49
1022.95 1023.01 1023.23 1023.06 1024.30 1024.26 1024.20 1024.08 1023.71 1023.27 1023.01 1022.85 1022.66 1022.25 1021.81 1021.42 1021.15 1020.73 1020.17 1019.63 1019.29 1018.95 1018.11 1017.35 1018.23 1018.44 1019.86 1021.23 1021.37 1021.81 1021.13 1019.52 1018.12 1017.78 1019.74 1021.47 1023.89 1025.71 1025.66 1025.23 1024.71 1023.71 1022.87 1022.06 1021.05
1024.22 1025.45 1025.93 1025.29 1025.09 1025.40 1025.43 1025.49 1024.98 1024.51 1024.17 1023.82 1023.18 1023.30 1023.31 1022.49 1022.05 1021.76 1021.29 1020.76 1020.10 1020.10 1019.37 1019.22 1020.34 1020.86 1022.26 1022.81 1022.88 1023.55 1023.23 1023.00 1022.34 1022.74 1022.85 1024.83 1025.86 1027.18 1027.17 1026.57 1025.76 1024.90 1023.72 1022.68 1021.74
1025.48 1026.15 1026.67 1026.75 1026.64 1026.32 1026.50 1026.34 1026.06 1025.66 1025.25 1024.75 1024.56 1024.36 1024.10 1023.83 1023.65 1023.40 1022.96 1022.93 1023.14 1021.77 1021.17 1020.86 1021.23 1022.15 1023.20 1023.59 1023.92 1024.80 1025.99 1026.09 1025.72 1026.21 1026.76 1027.33 1027.33 1028.08 1027.87 1027.20 1026.25 1025.57 1024.57 1023.46 1022.75
1026.82 1027.25 1027.10 1028.02 1027.59 1027.24 1027.69 1027.35 1026.95 1026.48 1025.89 1025.68 1025.44 1025.04 1025.06 1025.39 1025.05 1024.88 1024.67 1024.71 1024.64 1023.84 1022.90 1022.37 1022.22 1022.34 1023.55 1024.15 1024.42 1026.42 1029.27 1028.96 1029.14 1029.43 1029.51 1029.54 1029.40 1028.55 1027.43 1027.36 1027.06 1026.23 1025.17 1024.47 1023.68
Thickness
5608 5609 5610 5611 5612 5614 5616 5617 5618 5620 5621 5622 5624 5625 5626 5628 5631 5636 5642 5661 5663 5661 5662 5659 5657 5656 5657 5656 5660 5662 5660 5673 5683 5680 5697 5693 5695 5699 5707 5705 5708 5712 5717 5720 5725
5603 5604 5605 5606 5608 5610 5611 5612 5614 5615 5616 5618 5619 5620 5621 5623 5629 5642 5658 5659 5657 5658 5656 5655 5650 5647 5648 5651 5651 5656 5659 5676 5687 5688 5685 5686 5690 5694 5695 5696 5697 5701 5707 5710 5714
5597 5598 5599 5601 5602 5604 5606 5607 5609 5610 5611 5612 5613 5613 5613 5615 5627 5661 5664 5659 5654 5655 5653 5652 5647 5646 5641 5642 5647 5654 5664 5678 5670 5674 5674 5677 5677 5688 5691 5688 5703 5697 5700 5703 5706
5593 5594 5595 5597 5599 5601 5602 5604 5605 5605 5606 5607 5607 5605 5605 5606 5633 5659 5658 5653 5647 5646 5642 5640 5638 5635 5638 5636 5648 5640 5658 5659 5662 5662 5664 5667 5674 5679 5684 5697 5699 5697 5701 5699 5698
5591 5592 5593 5595 5596 5598 5599 5600 5601 5603 5603 5603 5601 5598 5597 5603 5639 5642 5647 5645 5640 5634 5635 5635 5633 5636 5634 5638 5632 5633 5652 5651 5654 5650 5655 5657 5665 5670 5678 5687 5687 5685 5685 5689 5693
5588 5589 5590 5592 5593 5594 5595 5597 5598 5600 5600 5599 5596 5592 5591 5605 5636 5631 5629 5636 5638 5632 5627 5627 5630 5631 5629 5627 5628 5638 5640 5640 5637 5641 5645 5647 5655 5651 5685 5683 5681 5678 5679 5682 5685
5584 5585 5585 5587 5588 5590 5592 5593 5595 5596 5595 5593 5589 5584 5584 5626 5622 5620 5618 5621 5623 5627 5625 5626 5621 5616 5621 5613 5619 5621 5621 5623 5630 5632 5635 5636 5641 5658 5677 5676 5672 5676 5676 5676 5678
5578 5579 5580 5581 5584 5586 5587 5589 5591 5591 5591 5588 5581 5574 5584 5609 5605 5607 5605 5607 5609 5612 5608 5607 5606 5607 5605 5604 5601 5605 5609 5619 5641 5625 5628 5629 5656 5661 5665 5667 5668 5667 5668 5670 5672
5572 5572 5573 5576 5579 5581 5583 5584 5586 5586 5584 5578 5569 5565 5578 5587 5592 5596 5595 5597 5596 5592 5588 5591 5589 5591 5584 5591 5591 5594 5616 5613 5622 5623 5626 5626 5644 5647 5647 5649 5652 5655 5659 5662 5665
5564 5564 5564 5565 5567 5568 5570 5572 5571 5569 5566 5560 5557 5544 5565 5572 5572 5576 5578 5579 5579 5572 5568 5568 5571 5576 5583 5585 5601 5597 5589 5611 5614 5611 5608 5615 5628 5626 5628 5631 5637 5644 5649 5653 5657
5553 5554 5553 5552 5550 5549 5550 5550 5549 5544 5538 5544 5538 5543 5543 5539 5547 5553 5554 5558 5562 5558 5562 5556 5554 5578 5602 5596 5601 5611 5604 5606 5593 5591 5596 5611 5611 5616 5619 5618 5626 5632 5636 5639 5646
5542 5540 5537 5534 5530 5525 5522 5516 5494 5482 5495 5501 5502 5502 5508 5510 5512 5528 5529 5534 5542 5553 5543 5539 5556 5589 5576 5572 5571 5578 5582 5588 5575 5570 5578 5594 5596 5598 5598 5600 5595 5597 5604 5611 5621
5529 5525 5519 5514 5507 5499 5486 5475 5465 5461 5462 5474 5471 5472 5475 5480 5488 5498 5500 5516 5526 5527 5534 5535 5584 5561 5558 5554 5554 5565 5570 5570 5568 5553 5559 5565 5585 5590 5580 5575 5573 5575 5582 5592 5601
5513 5507 5498 5490 5483 5467 5460 5442 5435 5430 5439 5441 5435 5430 5439 5452 5454 5458 5458 5477 5507 5519 5516 5512 5553 5535 5536 5539 5542 5546 5557 5550 5538 5542 5544 5551 5576 5575 5565 5560 5558 5561 5569 5578 5588
5494 5485 5472 5458 5445 5436 5422 5411 5402 5395 5409 5389 5387 5389 5401 5402 5395 5423 5417 5439 5462 5487 5492 5525 5522 5519 5513 5534 5530 5542 5536 5532 5528 5523 5518 5532 5535 5573 5547 5549 5543 5545 5549 5559 5572
5470 5457 5444 5432 5414 5401 5389 5380 5374 5380 5358 5350 5354 5355 5368 5373 5378 5389 5394 5390 5408 5438 5444 5476 5498 5500 5510 5510 5508 5509 5505 5512 5512 5496 5487 5537 5527 5541 5524 5506 5517 5524 5530 5538 5552
5447 5429 5412 5396 5384 5377 5367 5367 5359 5332 5328 5319 5326 5335 5338 5343 5352 5357 5357 5360 5362 5393 5441 5457 5456 5471 5491 5488 5489 5486 5480 5493 5485 5481 5524 5519 5509 5488 5472 5478 5486 5495 5504 5514 5528
5424 5405 5384 5370 5361 5354 5353 5347 5311 5298 5302 5307 5311 5315 5311 5320 5327 5331 5339 5339 5337 5349 5372 5402 5449 5415 5416 5480 5486 5469 5492 5506 5497 5501 5521 5482 5497 5459 5451 5456 5463 5470 5478 5490 5505
5400 5380 5368 5357 5349 5341 5345 5310 5280 5280 5284 5290 5298 5294 5295 5300 5306 5309 5306 5310 5318 5325 5343 5355 5397 5395 5397 5407 5427 5462 5466 5504 5494 5485 5507 5458 5421 5433 5436 5434 5439 5444 5454 5467 5481
5380 5363 5348 5336 5330 5330 5319 5288 5273 5273 5275 5282 5272 5276 5272 5280 5286 5288 5286 5295 5305 5322 5327 5334 5357 5370 5383 5385 5397 5417 5458 5459 5459 5470 5488 5444 5425 5421 5408 5406 5411 5418 5427 5442 5457
5363 5352 5327 5318 5313 5315 5290 5270 5269 5270 5269 5269 5264 5265 5261 5261 5272 5272 5270 5278 5290 5306 5322 5324 5334 5354 5362 5346 5350 5383 5395 5418 5473 5478 5507 5451 5379 5368 5368 5374 5384 5395 5407 5421 5436
5346 5327 5307 5305 5313 5294 5271 5262 5264 5262 5265 5261 5259 5260 5253 5256 5259 5265 5264 5269 5277 5290 5305 5315 5318 5332 5326 5325 5335 5332 5338 5370 5439 5437 5425 5459 5354 5329 5334 5346 5362 5380 5392 5404 5418
5331 5311 5300 5301 5288 5277 5266 5263 5261 5259 5256 5255 5251 5250 5249 5247 5250 5255 5258 5265 5269 5279 5286 5304 5302 5319 5320 5325 5333 5316 5315 5328 5368 5391 5366 5414 5331 5309 5319 5330 5343 5362 5377 5390 5403
5323 5308 5295 5290 5269 5264 5254 5255 5251 5255 5252 5250 5247 5248 5249 5249 5250 5246 5250 5257 5260 5261 5277 5295 5281 5289 5280 5266 5278 5277 5287 5317 5336 5366 5335 5323 5304 5295 5306 5316 5328 5348 5361 5371 5388
5311 5283 5267 5269 5271 5262 5254 5246 5243 5240 5245 5245 5249 5243 5233 5240 5243 5243 5248 5246 5255 5249 5260 5268 5246 5247 5238 5244 5251 5250 5261 5280 5288 5289 5312 5292 5274 5270 5278 5294 5311 5328 5345 5357 5371
5304 5286 5268 5263 5261 5259 5248 5243 5238 5237 5236 5238 5236 5237 5236 5231 5230 5224 5232 5225 5213 5233 5240 5252 5245 5239 5231 5244 5246 5235 5237 5244 5251 5250 5253 5264 5270 5267 5274 5284 5300 5311 5326 5343 5352
5291 5274 5273 5257 5258 5257 5242 5239 5236 5237 5241 5237 5233 5235 5230 5220 5223 5220 5219 5215 5212 5214 5224 5235 5245 5251 5229 5239 5255 5231 5200 5215 5212 5210 5220 5224 5238 5258 5269 5273 5280 5294 5315 5324 5335